DW8749 Weather Reports


Display with metric or nautical units.
time (UTC)temp
F
wind
direction
speed
MPH
gust
MPH
rain 1hr
in
rain 24hr
in
rain mn
in
humidity
%
barometer
mb
20260504004514 80 202 6.0 13.0 0.00 0.00 0.00 19 1005.8
20260504004006 80 212 7.0 13.0 0.00 0.00 0.00 19 1005.8
20260504003505 81 197 6.0 12.0 0.00 0.00 0.00 19 1005.9
20260504003017 81 182 5.0 12.0 0.00 0.00 0.00 18 1005.9
20260504002506 81 224 5.0 17.0 0.00 0.00 0.00 18 1006.0
20260504002008 82 211 8.0 17.0 0.00 0.00 0.00 18 1006.1
20260504001522 82 223 7.0 20.0 0.00 0.00 0.00 17 1006.1
20260504001007 83 249 8.0 20.0 0.00 0.00 0.00 17 1006.1
20260504000506 83 212 10.0 21.0 0.00 0.00 0.00 17 1006.2
20260504000026 83 215 11.0 21.0 0.00 0.00 0.00 18 1006.3
20260503235503 83 240 8.0 21.0 0.00 0.00 0.00 17 1006.4
20260503235006 83 229 8.0 20.0 0.00 0.00 0.00 16 1006.4
20260503234516 83 187 8.0 20.0 0.00 0.00 0.00 16 1006.4
20260503234006 83 215 10.0 17.0 0.00 0.00 0.00 16 1006.5
20260503233505 83 166 8.0 17.0 0.00 0.00 0.00 16 1006.5
20260503233023 83 180 7.0 17.0 0.00 0.00 0.00 16 1006.6
20260503232509 83 213 10.0 18.0 0.00 0.00 0.00 15 1006.7
20260503232010 83 206 9.0 21.0 0.00 0.00 0.00 15 1006.7
20260503231525 83 232 10.0 23.0 0.00 0.00 0.00 16 1006.8
20260503231013 84 219 11.0 22.0 0.00 0.00 0.00 16 1006.9
20260503230508 84 215 9.0 21.0 0.00 0.00 0.00 15 1007.0
20260503230012 84 271 10.0 19.0 0.00 0.00 0.00 15 1007.1
20260503225503 85 257 10.0 18.0 0.00 0.00 0.00 15 1006.9
20260503225012 85 201 6.0 17.0 0.00 0.00 0.00 16 1007.0
20260503224518 85 179 8.0 14.0 0.00 0.00 0.00 14 1006.9
20260503224007 85 262 7.0 18.0 0.00 0.00 0.00 15 1007.0
20260503223507 85 186 7.0 18.0 0.00 0.00 0.00 14 1007.1
20260503223023 85 187 6.0 14.0 0.00 0.00 0.00 15 1007.2
20260503222506 85 241 6.0 14.0 0.00 0.00 0.00 15 1007.3
20260503222010 86 186 6.0 20.0 0.00 0.00 0.00 14 1007.3
20260503221527 86 207 7.0 20.0 0.00 0.00 0.00 14 1007.4
20260503221010 86 183 9.0 19.0 0.00 0.00 0.00 14 1007.4
20260503220512 86 207 8.0 19.0 0.00 0.00 0.00 14 1007.6
20260503220016 86 233 6.0 15.0 0.00 0.00 0.00 14 1007.7
20260503215507 87 254 3.0 16.0 0.00 0.00 0.00 15 1007.8
20260503215007 87 231 8.0 16.0 0.00 0.00 0.00 14 1007.9
20260503214519 87 222 7.0 19.0 0.00 0.00 0.00 13 1007.8
20260503214008 87 278 9.0 18.0 0.00 0.00 0.00 13 1007.9
20260503213511 87 229 7.0 17.0 0.00 0.00 0.00 15 1007.9
20260503213024 87 213 8.0 16.0 0.00 0.00 0.00 15 1008.0
20260503212510 88 229 7.0 20.0 0.00 0.00 0.00 15 1008.1
20260503212011 88 215 8.0 20.0 0.00 0.00 0.00 15 1008.3
20260503211527 88 170 5.0 17.0 0.00 0.00 0.00 16 1008.2
20260503211016 88 219 10.0 17.0 0.00 0.00 0.00 16 1008.4
20260503210506 88 242 6.0 17.0 0.00 0.00 0.00 16 1008.5
20260503210016 87 233 7.0 19.0 0.00 0.00 0.00 17 1008.7
20260503205510 87 247 9.0 19.0 0.00 0.00 0.00 16 1008.8
20260503205007 87 176 5.0 17.0 0.00 0.00 0.00 18 1009.0
20260503204527 87 237 9.0 17.0 0.00 0.00 0.00 17 1009.3
20260503204009 87 267 5.0 13.0 0.00 0.00 0.00 18 1009.3
20260503203509 87 205 5.0 23.0 0.00 0.00 0.00 16 1009.3
20260503203028 87 253 8.0 23.0 0.00 0.00 0.00 16 1009.5
20260503202511 87 181 12.0 21.0 0.00 0.00 0.00 16 1009.5
20260503202013 87 207 6.0 21.0 0.00 0.00 0.00 17 1009.5
20260503201528 87 190 10.0 21.0 0.00 0.00 0.00 16 1009.7
20260503201006 87 216 7.0 20.0 0.00 0.00 0.00 16 1009.8
20260503200508 87 250 7.0 17.0 0.00 0.00 0.00 16 1009.8
20260503200022 87 227 8.0 15.0 0.00 0.00 0.00 16 1009.9
20260503195504 86 185 8.0 14.0 0.00 0.00 0.00 18 1009.8
20260503195002 86 250 7.0 15.0 0.00 0.00 0.00 19 1009.9
20260503194505 85 237 7.0 17.0 0.00 0.00 0.00 18 1010.0
20260503194002 85 219 9.0 19.0 0.00 0.00 0.00 17 1010.1
20260503193504 85 240 8.0 19.0 0.00 0.00 0.00 19 1010.0
20260503193017 84 208 6.0 16.0 0.00 0.00 0.00 18 1010.1
20260503192503 84 267 8.0 17.0 0.00 0.00 0.00 16 1010.4
20260503192007 84 199 10.0 18.0 0.00 0.00 0.00 16 1010.5
20260503191518 84 196 6.0 18.0 0.00 0.00 0.00 18 1010.6
20260503191008 84 259 7.0 21.0 0.00 0.00 0.00 17 1010.5
20260503190506 85 201 8.0 21.0 0.00 0.00 0.00 18 1010.6
20260503190021 84 249 5.0 19.0 0.00 0.00 0.00 18 1010.7
20260503185503 84 263 5.0 19.0 0.00 0.00 0.00 19 1010.9
20260503185003 84 190 7.0 17.0 0.00 0.00 0.00 20 1010.9
20260503184506 83 185 7.0 13.0 0.00 0.00 0.00 18 1011.0
20260503184006 83 216 5.0 17.0 0.00 0.00 0.00 19 1011.1
20260503183504 83 225 9.0 17.0 0.00 0.00 0.00 20 1011.2
20260503183014 83 228 7.0 18.0 0.00 0.00 0.00 17 1011.3
20260503182503 83 241 8.0 18.0 0.00 0.00 0.00 17 1011.4
20260503182007 83 252 8.0 15.0 0.00 0.00 0.00 21 1011.5
20260503181519 83 235 7.0 20.0 0.00 0.00 0.00 18 1011.5
20260503181008 83 225 6.0 20.0 0.00 0.00 0.00 21 1011.6
20260503180509 83 178 8.0 19.0 0.00 0.00 0.00 21 1011.7
20260503180013 83 213 9.0 19.0 0.00 0.00 0.00 19 1011.8
20260503175503 83 207 8.0 18.0 0.00 0.00 0.00 20 1011.9
20260503175003 83 198 8.0 16.0 0.00 0.00 0.00 21 1012.0
20260503174510 83 252 8.0 20.0 0.00 0.00 0.00 21 1012.2
20260503174006 83 271 6.0 20.0 0.00 0.00 0.00 22 1012.2
20260503173506 84 219 6.0 16.0 0.00 0.00 0.00 20 1012.3
20260503173022 84 213 8.0 14.0 0.00 0.00 0.00 18 1012.4
20260503172508 84 194 6.0 16.0 0.00 0.00 0.00 18 1012.4
20260503172010 84 271 6.0 17.0 0.00 0.00 0.00 20 1012.4
20260503171524 84 252 7.0 18.0 0.00 0.00 0.00 18 1012.5
20260503171008 83 223 7.0 15.0 0.00 0.00 0.00 17 1012.6
20260503170502 83 266 6.0 19.0 0.00 0.00 0.00 20 1012.6
20260503151003 73 255 8.0 17.0 0.00 0.00 0.00 33 1013.6
20260503150503 72 202 3.0 17.0 0.00 0.00 0.00 35 1013.6
20260503131005 54 231 4.0 10.0 0.00 0.00 0.00 64 1014.5
20260503130507 53 260 3.0 11.0 0.00 0.00 0.00 65 1014.5
20260503110503 51 222 4.0 9.0 0.00 0.00 0.00 66 1014.2
20260503090504 52 190 6.0 11.0 0.00 0.00 0.00 64 1015.0
20260503081522 51 211 3.0 10.0 0.00 0.00 0.00 61 1015.3
20260503081003 52 204 3.0 10.0 0.00 0.00 0.00 61 1015.3
20260503072509 52 196 3.0 6.0 0.00 0.00 0.00 57 1015.8
20260503072007 53 192 3.0 6.0 0.00 0.00 0.00 57 1015.8
20260503071532 53 218 3.0 5.0 0.00 0.00 0.00 56 1015.8
20260503071003 53 210 2.0 6.0 0.00 0.00 0.00 55 1015.9
20260503070503 54 213 2.0 6.0 0.00 0.00 0.00 55 1016.0
20260503055006 56 201 5.0 10.0 0.00 0.00 0.00 48 1016.3
20260503054524 56 190 5.0 9.0 0.00 0.00 0.00 47 1016.4
20260503054006 56 203 4.0 9.0 0.00 0.00 0.00 47 1016.4
20260503053508 56 188 4.0 8.0 0.00 0.00 0.00 47 1016.5
20260503053025 57 191 4.0 9.0 0.00 0.00 0.00 46 1016.4
20260503052507 57 170 5.0 9.0 0.00 0.00 0.00 45 1016.5
20260503052010 57 167 5.0 9.0 0.00 0.00 0.00 45 1016.5
20260503051506 57 190 4.0 11.0 0.00 0.00 0.00 44 1016.6
20260503051003 57 193 6.0 11.0 0.00 0.00 0.00 44 1016.6
20260503050510 57 182 5.0 11.0 0.00 0.00 0.00 43 1016.6
20260503050020 57 185 5.0 11.0 0.00 0.00 0.00 43 1016.6
20260503045507 57 175 5.0 12.0 0.00 0.00 0.00 43 1016.6
20260503045009 57 157 4.0 12.0 0.00 0.00 0.00 43 1016.6
20260503044531 57 210 5.0 11.0 0.00 0.00 0.00 42 1016.6
20260503044013 57 178 5.0 9.0 0.00 0.00 0.00 42 1016.6
20260503043507 57 158 5.0 11.0 0.00 0.00 0.00 42 1016.7
20260503043024 57 197 5.0 11.0 0.00 0.00 0.00 42 1016.7
20260503042510 57 175 6.0 11.0 0.00 0.00 0.00 42 1016.7
20260503042003 57 201 5.0 9.0 0.00 0.00 0.00 42 1016.8
20260503041512 57 169 4.0 8.0 0.00 0.00 0.00 42 1016.8
20260503041004 57 176 4.0 8.0 0.00 0.00 0.00 42 1016.9
20260503040505 57 192 4.0 8.0 0.00 0.00 0.00 42 1017.0
20260503040023 57 179 3.0 8.0 0.00 0.00 0.00 41 1017.0
20260503035509 58 187 4.0 7.0 0.00 0.00 0.00 41 1017.1
20260503035008 58 169 3.0 8.0 0.00 0.00 0.00 40 1017.3
20260503034524 58 156 4.0 8.0 0.00 0.00 0.00 40 1017.3
20260503034008 58 163 3.0 6.0 0.00 0.00 0.00 40 1017.3
20260503033506 59 159 3.0 5.0 0.00 0.00 0.00 40 1017.3
20260503033024 59 140 3.0 4.0 0.00 0.00 0.00 39 1017.4
20260503032511 60 138 2.0 4.0 0.00 0.00 0.00 38 1017.4
20260503032005 60 138 2.0 7.0 0.00 0.00 0.00 37 1017.4
20260503031512 60 132 3.0 7.0 0.00 0.00 0.00 36 1017.4
20260503031008 60 127 3.0 5.0 0.00 0.00 0.00 35 1017.4
20260503030506 60 128 2.0 6.0 0.00 0.00 0.00 36 1017.4
20260503030016 61 121 3.0 6.0 0.00 0.00 0.00 35 1017.4
20260503025507 61 120 2.0 4.0 0.00 0.00 0.00 35 1017.3
20260503025007 61 137 1.0 3.0 0.00 0.00 0.00 33 1017.3
20260503024523 61 142 2.0 3.0 0.00 0.00 0.00 33 1017.3
20260503024008 62 99 0.0 2.0 0.00 0.00 0.00 33 1017.1
20260503023509 62 93 0.0 2.0 0.00 0.00 0.00 32 1017.2
20260503023027 62 105 1.0 2.0 0.00 0.00 0.00 32 1017.1
20260503022503 62 111 1.0 3.0 0.00 0.00 0.00 32 1017.1
20260503022010 63 134 1.0 3.0 0.00 0.00 0.00 31 1017.1
20260503021514 63 98 0.0 3.0 0.00 0.00 0.00 31 1017.0
20260503021011 63 147 1.0 3.0 0.00 0.00 0.00 32 1017.0
20260503020508 63 71 1.0 3.0 0.00 0.00 0.00 31 1016.9
20260503015506 64 74 0.0 2.0 0.00 0.00 0.00 31 1016.9
20260503015010 64 82 0.0 2.0 0.00 0.00 0.00 30 1016.9
20260503014524 65 109 0.0 4.0 0.00 0.00 0.00 30 1016.8
20260503014008 65 98 0.0 4.0 0.00 0.00 0.00 30 1016.8
20260503013510 66 71 1.0 4.0 0.00 0.00 0.00 30 1016.7
20260503013036 67 80 1.0 3.0 0.00 0.00 0.00 30 1016.7
20260503012506 67 117 0.0 3.0 0.00 0.00 0.00 29 1016.7
20260503012005 67 132 1.0 4.0 0.00 0.00 0.00 29 1016.8
20260503011515 67 137 2.0 4.0 0.00 0.00 0.00 28 1016.8
20260503011007 68 155 2.0 3.0 0.00 0.00 0.00 28 1016.8
20260503010510 68 132 2.0 3.0 0.00 0.00 0.00 27 1016.8
20260503010023 68 160 1.0 3.0 0.00 0.00 0.00 27 1016.9
20260503005510 68 168 2.0 3.0 0.00 0.00 0.00 26 1016.9
20260503005009 68 172 1.0 3.0 0.00 0.00 0.00 26 1016.9